[[{"header":{"parameterUnit":"m.s-1","parameterCategory":1,"la1":30.2991,"la2":30.254,"lo1":-89.0895,"lo2":-89.0444,"dy":0.0017,"dx":0.0017,"nx":28,"ny":28,"refTime":"2025-07-31T03:00:00:Z","depth":0,"parameterNumber":2,"parameterNumberName":"U-component_of_WINDS"},"data":[0,0,0,0,0,0,0,0,0,0,0,0,0,0,0,0,0,0,0,0,0,0,0,0,0,0,0,0,0,0,0,0,0,0,0,0,0,0,0,0,0,0,0,0,0,0,0,0,0,0,0,0,0,0,0,0,0,0,1.4655,1.4656,0,1.48,1.4802,1.4804,1.4854,1.4853,1.4853,1.4852,1.5005,1.5009,1.5014,0,0,0,0,0,0,0,0,0,0,0,0,0,1.4423,1.4427,1.4655,1.4656,1.4658,1.48,1.4802,1.4804,1.4854,1.4853,1.4853,1.4852,1.5003,1.5009,1.5014,0,0,0,0,0,0,0,0,0,0,0,0,0,1.4541,1.4428,1.4654,1.47,1.4706,1.48,1.4802,1.4805,1.4854,1.4853,1.4852,1.4852,1.5001,1.5008,1.5015,1.5075,0,0,1.5036,1.5039,0,0,0,0,0,0,0,0,1.4535,1.455,1.4692,1.4697,1.4703,1.4808,1.4776,1.4896,1.4854,1.4798,1.4852,1.4851,1.494,1.4952,1.4981,1.5082,1.5089,1.5037,1.5041,1.5044,1.5046,0,0,0,0,0,0,0,1.4526,1.4544,1.4712,1.4694,1.4701,1.4715,1.473,1.4799,1.4872,1.4803,1.4807,1.4823,1.4943,1.4975,1.4985,1.5091,1.5036,1.5043,1.5047,1.505,1.5249,1.525,0,0,0,0,0,0,1.451,1.4537,1.4708,1.4717,1.4615,1.4719,1.4737,1.4775,1.4872,1.4885,1.4824,1.4825,1.4963,1.4977,1.4991,1.5068,1.5044,1.505,1.5054,1.5248,1.525,1.5251,0,0,0,0,0,0,1.4505,1.4525,1.4702,1.4628,1.4652,1.4724,1.4767,1.4779,1.481,1.4887,1.4901,1.4842,1.4963,1.4981,1.5054,1.5074,1.5053,1.506,1.5247,1.5249,1.525,1.5222,0,0,0,0,0,0,1.4498,1.4523,1.4545,1.4628,1.4655,1.4761,1.4768,1.4782,1.4821,1.4824,1.4908,1.4921,1.4964,1.5043,1.5061,1.5083,1.5065,1.5245,1.5248,1.525,1.5221,1.5222,1.5223,0,0,0,0,0,1.449,1.4532,1.4546,1.4567,1.4685,1.4762,1.4778,1.4825,1.4823,1.4847,1.4897,1.4919,1.5069,1.505,1.507,1.5095,1.5244,1.5247,1.525,1.5221,1.5222,1.5223,0,0,0,0,0,0,1.4451,1.4544,1.456,1.4631,1.4688,1.477,1.4802,1.4825,1.4884,1.4885,1.4942,1.496,1.5028,1.5069,1.5047,1.5159,1.5158,1.5165,1.5129,1.5131,1.5132,1.5121,1.5071,0,0,0,0,0,1.445,1.4504,1.4583,1.4637,1.4665,1.4728,1.4764,1.4795,1.4857,1.4882,1.4937,1.4997,1.5058,1.5097,1.5157,1.5228,1.5247,1.5255,1.5256,1.5256,1.5261,1.5302,1.5307,1.5259,1.5259,1.5259,0,0,1.445,1.4507,1.4538,1.4631,1.4679,1.4734,1.4748,1.4806,1.4848,1.4891,1.4962,1.5005,1.5076,1.5148,1.5182,1.5184,1.5279,1.526,1.5259,1.5265,1.5305,1.531,1.5313,1.5261,1.5261,1.5261,0,0,1.4478,1.4526,1.4577,1.4625,1.4697,1.4739,1.4751,1.4831,1.486,1.4932,1.4966,1.5017,1.5121,1.517,1.5209,1.5256,1.5279,1.5274,1.5279,1.5318,1.5322,1.5326,1.5342,1.5348,1.5279,1.5279,1.5279,0,1.4468,1.4552,1.4601,1.4657,1.4697,1.4738,1.479,1.4835,1.4923,1.4951,1.4951,1.5082,1.5133,1.5217,1.5228,1.5258,1.5274,1.5265,1.5317,1.5321,1.5326,1.5342,1.5348,1.5278,1.5278,1.5278,1.5278,0,1.4537,1.4595,1.4628,1.4711,1.4755,1.4809,1.4867,1.4906,1.4934,1.4976,1.505,1.5112,1.5186,1.5208,1.5237,1.5297,1.5295,1.5306,1.5306,1.5328,1.5345,1.5352,1.5276,1.5277,1.5277,1.5277,0,0,1.4544,1.4654,1.4665,1.4704,1.4787,1.4833,1.4889,1.496,1.4993,1.5053,1.5102,1.5189,1.5199,1.5243,1.5277,1.5312,1.5345,1.5318,1.5321,1.5321,1.5416,1.5407,1.5413,1.5361,1.5362,1.5363,1.541,0,1.4582,1.4683,1.4729,1.4811,1.4865,1.4905,1.4954,1.5011,1.5052,1.5105,1.5151,1.5212,1.5221,1.5247,1.5283,1.5333,1.5365,1.5331,1.5408,1.541,1.5388,1.5422,1.5413,1.5454,1.5416,1.5418,1.5418,0,1.464,1.4699,1.4786,1.4863,1.4887,1.493,1.5,1.505,1.5115,1.5143,1.5192,1.5225,1.5287,1.5283,1.537,1.5345,1.538,1.5409,1.5412,1.5421,1.5415,1.5432,1.5468,1.5474,1.5429,1.5428,1.5428,0,1.4636,1.4738,1.4803,1.4834,1.4926,1.4955,1.4995,1.506,1.51,1.5161,1.5188,1.5255,1.5292,1.5345,1.5395,1.5388,1.5477,1.5478,1.5502,1.5501,1.5519,1.5517,1.5561,1.5542,1.5542,1.5541,1.5541,0,1.4674,1.4725,1.4802,1.4842,1.4901,1.4954,1.5011,1.5054,1.5111,1.5161,1.52,1.5246,1.531,1.5364,1.5405,1.547,1.5487,1.5512,1.5522,1.5508,1.5505,1.5531,1.553,1.5543,1.5543,1.5542,1.5542,0,1.4679,1.4732,1.4806,1.4886,1.4908,1.4948,1.5017,1.5058,1.5101,1.5164,1.5181,1.525,1.5316,1.5371,1.5459,1.5486,1.5554,1.5566,1.5531,1.5537,1.5558,1.5555,1.562,1.5632,1.5604,1.5604,1.5605,0,1.4699,1.474,1.4824,1.486,1.4899,1.4956,1.4997,1.5051,1.5092,1.517,1.5202,1.5271,1.5328,1.5432,1.549,1.5558,1.5571,1.559,1.5582,1.5567,1.5572,1.5568,1.5573,1.559,1.559,1.559,1.559,0,1.473,1.4754,1.4811,1.4878,1.4925,1.4981,1.5037,1.5064,1.5129,1.5173,1.5241,1.5286,1.5375,1.5443,1.5516,1.5558,1.5585,1.5592,1.5601,1.5588,1.5566,1.5578,1.5532,1.559,1.559,1.559,1.559,1.559,1.4743,1.4781,1.4847,1.4909,1.4957,1.5009,1.5051,1.51,1.5157,1.5232,1.5261,1.533,1.5396,1.5498,1.554,1.5596,1.5599,1.5613,1.5616,1.5619,1.5616,1.5557,1.5609,1.5609,1.5609,1.5609,1.561,0,1.4776,1.482,1.4877,1.4954,1.5003,1.5024,1.5087,1.5128,1.5188,1.5246,1.5302,1.538,1.5447,1.551,1.5579,1.5612,1.5626,1.5628,1.5626,1.5636,1.5609,1.5594,1.5616,1.5616,1.5616,1.5616,1.5616,1.5616,1.4798,1.4863,1.4896,1.4985,1.503,1.5097,1.5132,1.518,1.5227,1.5312,1.5367,1.5408,1.5469,1.5543,1.5605,1.5622,1.5646,1.5645,1.5665,1.5639,1.5638,1.5636,1.5622,1.565,1.565,1.5687,1.5688,1.5688]},{"header":{"parameterUnit":"m.s-1","parameterCategory":1,"la1":30.2991,"la2":30.254,"lo1":-89.0895,"lo2":-89.0444,"dy":0.0017,"dx":0.0017,"nx":28,"ny":28,"refTime":"2025-07-31T03:00:00:Z","depth":0,"parameterNumber":3,"parameterNumberName":"V-component_of_WINDS"},"data":[0,0,0,0,0,0,0,0,0,0,0,0,0,0,0,0,0,0,0,0,0,0,0,0,0,0,0,0,0,0,0,0,0,0,0,0,0,0,0,0,0,0,0,0,0,0,0,0,0,0,0,0,0,0,0,0,0,0,3.9621,3.9622,0,3.9649,3.965,3.965,3.9665,3.9665,3.9665,3.9665,3.969,3.9691,3.9691,0,0,0,0,0,0,0,0,0,0,0,0,0,3.9578,3.9578,3.9621,3.9622,3.9622,3.9649,3.965,3.965,3.9665,3.9665,3.9665,3.9665,3.969,3.9691,3.9691,0,0,0,0,0,0,0,0,0,0,0,0,0,3.96,3.9579,3.9621,3.9633,3.9634,3.9649,3.965,3.965,3.9665,3.9665,3.9665,3.9665,3.969,3.969,3.9691,3.9696,0,0,3.9694,3.9695,0,0,0,0,0,0,0,0,3.9599,3.9602,3.9631,3.9632,3.9634,3.9654,3.9643,3.9665,3.9665,3.9653,3.9665,3.9665,3.9678,3.968,3.9685,3.9697,3.9698,3.9694,3.9695,3.9695,3.9696,0,0,0,0,0,0,0,3.9597,3.9601,3.9632,3.9631,3.9633,3.9636,3.9639,3.9648,3.9665,3.9654,3.9655,3.9659,3.9678,3.9684,3.9685,3.9698,3.9694,3.9695,3.9696,3.9696,3.9716,3.9716,0,0,0,0,0,0,3.9594,3.9599,3.9631,3.9633,3.9616,3.9636,3.964,3.9647,3.9665,3.9667,3.9659,3.9659,3.9682,3.9684,3.9686,3.9693,3.9695,3.9696,3.9697,3.9716,3.9716,3.9716,0,0,0,0,0,0,3.9593,3.9597,3.963,3.9617,3.9621,3.9637,3.9645,3.9648,3.9653,3.9668,3.9671,3.9661,3.9682,3.9685,3.9694,3.9694,3.9697,3.9697,3.9716,3.9716,3.9716,3.9706,0,0,0,0,0,0,3.9592,3.9597,3.9599,3.9617,3.9622,3.9638,3.9645,3.9648,3.9655,3.9656,3.9671,3.9673,3.9682,3.9692,3.9695,3.9695,3.9698,3.9716,3.9716,3.9716,3.9707,3.9706,3.9705,0,0,0,0,0,3.959,3.9594,3.9599,3.9603,3.9625,3.9638,3.9641,3.9652,3.9655,3.9657,3.9667,3.9673,3.9694,3.9693,3.9696,3.9697,3.9716,3.9716,3.9716,3.9707,3.9706,3.9705,0,0,0,0,0,0,3.9575,3.9597,3.9602,3.9612,3.9623,3.9641,3.9644,3.9651,3.9661,3.9661,3.9674,3.9677,3.9685,3.9691,3.969,3.9702,3.9706,3.9706,3.9698,3.9697,3.9696,3.9694,3.9699,0,0,0,0,0,3.9573,3.9582,3.9601,3.9607,3.9613,3.9627,3.9633,3.9641,3.9653,3.9657,3.9668,3.9678,3.9687,3.9692,3.9701,3.9708,3.9711,3.971,3.9709,3.9709,3.9709,3.9713,3.9713,3.9716,3.9716,3.9716,0,0,3.9568,3.9581,3.9586,3.9605,3.9614,3.9623,3.9631,3.964,3.9647,3.9658,3.9668,3.9676,3.9688,3.9696,3.97,3.9702,3.9709,3.9709,3.9708,3.9709,3.9713,3.9713,3.9713,3.9716,3.9716,3.9716,0,0,3.9564,3.9575,3.9582,3.9592,3.9608,3.9617,3.9619,3.9636,3.9642,3.9652,3.9661,3.9669,3.9684,3.9692,3.9698,3.9699,3.9705,3.9701,3.9698,3.9702,3.9702,3.9701,3.9702,3.9702,3.9701,3.9701,3.9701,0,3.9556,3.9571,3.9585,3.9594,3.9602,3.9614,3.9621,3.963,3.9646,3.9651,3.9653,3.9673,3.9682,3.9693,3.9693,3.9697,3.9699,3.97,3.9701,3.9701,3.9701,3.9701,3.9701,3.9701,3.9701,3.9701,3.9701,0,3.956,3.9571,3.9575,3.9592,3.9601,3.9608,3.9623,3.9629,3.9636,3.9646,3.9656,3.9667,3.9679,3.9682,3.9689,3.9694,3.9695,3.9699,3.9702,3.97,3.9701,3.9701,3.97,3.97,3.97,3.9701,0,0,3.9546,3.9573,3.9574,3.9583,3.9601,3.9609,3.9617,3.963,3.9636,3.9647,3.9654,3.9667,3.9671,3.9678,3.9686,3.969,3.969,3.9693,3.9694,3.9692,3.9696,3.9693,3.9693,3.9694,3.9694,3.9694,3.9695,0,3.9545,3.9563,3.9576,3.9588,3.9598,3.961,3.9618,3.9629,3.9638,3.9647,3.9656,3.9666,3.967,3.9675,3.9679,3.9689,3.9691,3.9689,3.97,3.97,3.9697,3.9694,3.969,3.9691,3.9696,3.9696,3.9696,0,3.9546,3.9559,3.9573,3.9591,3.9595,3.9602,3.9616,3.9624,3.9637,3.9643,3.9652,3.966,3.9669,3.9672,3.9684,3.9682,3.9688,3.9693,3.9693,3.9695,3.9698,3.9695,3.9691,3.9691,3.9696,3.9696,3.9696,0,3.9535,3.9556,3.9567,3.9574,3.9595,3.96,3.9608,3.9622,3.9629,3.964,3.9645,3.9657,3.9663,3.9671,3.9682,3.9683,3.9693,3.9697,3.9698,3.9698,3.9699,3.9699,3.9696,3.9702,3.9702,3.9702,3.9702,0,3.9533,3.954,3.9562,3.9569,3.9578,3.9593,3.9601,3.9611,3.9623,3.9631,3.9642,3.9649,3.9663,3.9671,3.968,3.9689,3.9691,3.9696,3.9698,3.9695,3.9695,3.9699,3.9699,3.9702,3.9702,3.9702,3.9702,0,3.9522,3.9537,3.955,3.957,3.9575,3.9581,3.9597,3.9604,3.9614,3.9624,3.9627,3.9643,3.9654,3.9666,3.968,3.9685,3.9694,3.9697,3.969,3.9691,3.9692,3.9692,3.9692,3.9693,3.9698,3.9698,3.9698,0,3.9519,3.9526,3.9548,3.9555,3.9564,3.9575,3.9583,3.9598,3.9605,3.9622,3.9626,3.9638,3.9648,3.9665,3.9677,3.9688,3.9691,3.969,3.9693,3.969,3.9691,3.9691,3.9692,3.969,3.9689,3.9689,3.9689,0,3.9513,3.9521,3.9533,3.9548,3.9558,3.957,3.9583,3.9587,3.9604,3.9612,3.9624,3.9633,3.9648,3.966,3.9672,3.968,3.9687,3.9689,3.969,3.9687,3.9683,3.9685,3.9688,3.9688,3.9688,3.9689,3.9689,3.9689,3.9507,3.9514,3.9531,3.9544,3.9555,3.9567,3.9575,3.9586,3.9597,3.9612,3.962,3.9632,3.9645,3.9663,3.9671,3.968,3.9682,3.9683,3.9683,3.9684,3.9683,3.9681,3.9682,3.9682,3.9682,3.9682,3.9682,0,3.9502,3.9514,3.9526,3.9544,3.9555,3.9562,3.9577,3.9584,3.9595,3.9608,3.9619,3.9633,3.9644,3.9657,3.9669,3.9674,3.9677,3.9677,3.9676,3.9678,3.968,3.9678,3.9674,3.9674,3.9674,3.9674,3.9674,3.9674,3.9501,3.9513,3.9523,3.9541,3.9552,3.9566,3.9573,3.9584,3.9594,3.961,3.962,3.9629,3.9642,3.9655,3.9666,3.9669,3.9673,3.9671,3.9676,3.9677,3.9678,3.9679,3.9677,3.9672,3.9672,3.9673,3.9673,3.9673]}]]